リー彗星

C/1999 H1 ( Lee )

English version
Home page
Updated on January 26, 2000

---------------------------------------------------------------------

・ プロフィール

発見日 1999年 4月16日
発見光度 9等
発見者 Steven Lee (Mudgee, N.S.W.)

・ 写真集

・ 軌道要素

   The following improved orbital elements by Kenji Muraoka, are from
  888 observations 1999 Apr. 16 to Dec. 10, including 8 Planets, Moon
  and 3 minor planets perturbations and non-gravitational effect of
  style II.  The mean residual is +/- 0.78 arc seconds.

      Epoch  =  1999 July  1.0  TT       JDT = 2451360.5
          T  =  1999 July 11.17316       +/- 0.00019 (m.e.) TT
       Peri. =   40.70436                +/- 0.00060
       Node  =  162.65140                +/- 0.00018   (2000.0)
       Incl. =  149.35276                +/- 0.00009
          q  =    0.7080729              +/- 0.0000070 AU
          e  =    0.9996221              +/- 0.0000050
        1/a  =   +0.0005337              +/- 0.0000071 1/AU
         A1  =   +2.65                   +/- 0.28
         A2  =   -0.1028                 +/- 0.0527
        ( P  =  81103 years )

・ 星図

・ 光度変化

        m1 = 6.3 + 5 logΔ + 14.0 log r  [   ,-35]  (              〜1999年 6月 6日)
        m1 = 6.3 + 5 logΔ +  5.0 log r  [-35, 40]  (1999年 6月 6日〜1999年 8月20日)
        m1 = 6.0 + 5 logΔ + 14.0 log r  [ 40,120]  (1999年 8月20日〜1999年11月 8日)
        m1 = 8.9 + 5 logΔ + 10.0 log r  [120,   ]  (1999年11月 8日〜              )

---------------------------------------------------------------------

軌道要素は村岡健治氏の計算によるものです。
星図は StellaNavigator Ver.2.0 for Windows (アストロアーツ 編著 / アスキー出版局刊) で作成したものです。
光度グラフはComet for Windowsで作成したものです。

---------------------------------------------------------------------

Copyright(C) Seiichi Yoshida (comet@aerith.net). All rights reserved.